Tracking 28766 objects as of 14-Apr-2024
HD Live streaming from Space Station
objects crossing your sky now

OBJECT AG

Track OBJECT AG now!
10-day predictions
OBJECT AG is classified as:


NORAD ID: 47962
Int'l Code: 2021-022AG
Perigee: 437.7 km
Apogee: 445.6 km
Inclination: 97.5 °
Period: 93.3 minutes
Semi major axis: 6812 km
RCS: Unknown
Launch date: March 22, 2021
Source: (TBD)
Launch site: TYURATAM MISSILE AND SPACE COMPLEX (TTMTR)

Uplink (MHz):
Downlink (MHz): 435.800
Beacon (MHz):
Mode: 9600bps FSK
Call sign:
Status: Inactive

Your satellite tracking list
Your tracking list is empty




NASA's NSSDC Master Catalog

Two Line Element Set (TLE):
1 47962U 21022AG  24104.80632502  .00077928  00000-0  17005-2 0  9990
2 47962  97.4679  11.9568 0005776 358.2103   1.9123 15.43923163168142
Source of the keplerian elements: AMSAT